Simultaneous Nadir Overpasses (SNOs) Predictions

Prediction of SNOs over PacNW region [( 10.00, 139.50) to ( 22.70, 165.60)] between AQUA and NPP Satellites:

Table of predicted SNOs over PacNW region for the next 30.0 days since TLE Epoch: 3/30/2017
Index Date (AQUA) Time (AQUA) AQUA Lat,Lon Date (NPP) Time (NPP) NPP Lat,Lon Distance(km) Time Diff (sec)
1 04/06/2017 15:10:16 22.61, 159.77 04/06/2017 15:10:44 23.14, 157.30 260.33 28
2 04/14/2017 15:59:28 22.59, 147.45 04/14/2017 16:01:30 23.21, 144.62 298.82 122
3 04/22/2017 15:09:44 22.61, 159.88 04/22/2017 15:10:47 23.19, 157.29 272.97 63
4 04/25/2017 03:31:28 22.68, 147.59 04/25/2017 03:27:58 25.91, 144.99 445.49 210




NCC Satellite Simultaneous Nadir Overpasses (SNOs) Prediction Service
